Location: G�ppingen
(48.7089°N, 9.6563°E)
Time: 06:11:48
(UTC+01:00)

O/OREOS (USA 219) - Visible Passes

Search period start: 20 March 2019 00:00
Search period end: 30 March 2019 00:00
Orbit: 621 x 646 km, 72.0° (Epoch: 22 May)

Date Brightness Start Highest point End Pass type
(mag) Time Alt. Az. Time Alt. Az. Time Alt. Az.
22 Mar ? 05:11:25 10° SE 05:13:51 15° E 05:16:19 10° ENE visible
23 Mar ? 05:31:42 10° SSE 05:35:34 30° ESE 05:39:28 10° NE visible
25 Mar ? 04:37:51 10° SE 04:40:36 16° E 04:43:22 10° ENE visible
26 Mar ? 04:58:21 10° S 05:02:20 33° ESE 05:06:21 10° NE visible
27 Mar ? 05:19:48 10° SSW 05:24:14 69° ESE 05:28:43 10° NNE visible
28 Mar ? 04:04:21 10° SE 04:07:21 18° E 04:10:23 10° ENE visible
29 Mar ? 04:25:01 10° S 04:29:07 36° ESE 04:33:14 10° NE visible
